Tracking 18844 objects as of 21-Nov-2017
HD Live streaming from Space Station
objects crossing your sky now

MIDAS 4

Track MIDAS 4 now!
10-day predictions
MIDAS 4 is classified as:


NORAD ID: 192
Int'l Code: 1961-028A
Perigee: 3,492.5 km
Apogee: 3,771.8 km
Inclination: 95.9 °
Period: 165.9 minutes
Semi major axis: 10003 km
RCS: 10.3526 m2 (large)
Launch date: October 21, 1961
Source: United States (US)
Launch site: AIR FORCE WESTERN TEST RANGE (AFWTR)
aabbcc
Your satellite tracking list
Your tracking list is empty




NASA's NSSDC Master Catalog

Two Line Element Set (TLE):
1   192U 61028A   17324.50858789 -.00000021 +00000-0 -78929-2 0  9998
2   192 095.8606 285.0537 0139606 150.5351 210.3458 08.67758541776591
Source of the keplerian elements: AFSPC